Airfield :
LOGIN :

Register | Disclaimer

   EN    FR    IT 

 










Legend :    VFR   Marginal VFR   IFR   Intensive IFR   Very Intensive IFR
Visi :
Ceiling :
>= 8 km
>= 3000ft
5 to 8 km
1000 to 3000 ft
1500m to 5 km
500 to 1000 ft
800 to 1500m
200 to 500 ft
< 800m
< 200 ft
Symbols :   Thunderstorms  Fog  Heavy snow  Heavy precipitations  Wind > 20 kt
SIGMETs :     Misc.  Thunderstorms  Icing  Turbulence  Mountain Waves  Volcanic Ashes







- Airport Elevation : 112 ft
- IATA code : KIR


EIKY - Kerry Farranfore

CURRENT METAR :
  • 161530Z 27012KT 9999 SCT027 SCT038 15/10 Q1010

EXPIRED METARs :
  • 161500Z 27013KT 250V310 9999 BKN026 15/10 Q1010
  • 161430Z 27008KT 240V310 9999 SCT024 BKN033 16/11 Q1010
  • 161400Z 28009KT 250V320 9999 SCT029 16/11 Q1010
  • 161330Z 27010KT 240V310 9999 SCT028 SCT033 15/09 Q1010
  • 161300Z 27013KT 9999 SCT031 SCT036 16/09 Q1010

TAF TAF EIKY
Valid from the 16 at 15:00 until the 16 at 21:00 UTC


161400Z 1615/1621 26009KT 9999 SCT035
No reported NOTAMs for that airfield.



MET'MAP, your aeronautical weather chart ! - Copyright ORBIFLY December 2007 - Disclaimer

ORBIFLY MET'MAP TEAM :

Programming & Development : Alexandra Zaïnal
Concept & Development : Baudouin d'Aumeries
Co-Development & Prog : Marc-Olivier Méhu
Technical & hardware support : Manuel Goepfert

Contact : metmap@orbifly.com




SOURCES & CREDITS :

   NOAA